Content
SEND FEEDBACK

Daily
Averages
Monthly
Summary
United States of America

BELLEFONTE, DELAWARE


Home > North America > United States > Delaware
Elevation: 269 feet     Latitude: 39 46N     Longitude: 075 31W

WEATHER
 
SELECT A DAY
Number of Records: 205,923;   Date Range: 1/1/95 - 11/19/14
 
SHARE

PRINT THIS DATA

[ ← Previous Day ]
WEATHER ALMANAC - AUGUST 9, 2014
[ Next Day → ]
[ °C ]   °F
Weather ElementAverageHighLow
Temperature73.8 °F84 °F (3:51 pm)60.1 °F (3:51 am)
Dewpoint57.4 °F60.8 °F (11:51 pm)54 °F (2:51 am)
Humidity58.9 %83 % (7:51 am)35 % (4:51 pm)
Barometer30.11 in30.14 in (8:51 am)30.08 in (3:51 am)
Wind Speed3.8 mph6.9 mph (4:51 am)
Weather ElementAverage
Visibility10 mi
Wind DirectionSSW (185.7 °)

Weather ElementTotal
Precipitation---
Cooling Degree Days7.1 (Base 65)
Growing Degree Days22.1 (Base 50)
Averaged from 23 records on August 9, 2014
WEATHER CONDITIONS BREAKOUT
WIND DIRECTION BREAKOUT
WEATHER BY HOUR - AUGUST 9, 2014
[ °C ]   °F
Local TimeTemperatureDewpointHumidityBarometerVisibilityWind DirectionWind SpeedGust SpeedPrecipitationEventsConditions
12:51 AM64.9 °F57.0 °F75 %30.12 in10.0 miWNW (290°)4.6 mphClear
1:51 AM64.0 °F57.0 °F78 %30.11 in10.0 miWest (270°)4.6 mphClear
3:51 AM63.0 °F55.9 °F78 %30.11 in10.0 miWSW (250°)5.8 mphClear
4:51 AM60.8 °F55.4 °F82 %30.11 in10.0 miNW (320°)5.8 mphClear
5:51 AM60.1 °F55.0 °F83 %30.12 in10.0 miNNW (330°)4.6 mphClear
6:51 AM61.0 °F55.9 °F83 %30.13 in10.0 miNNW (330°)4.6 mphClear
7:51 AM66.2 °F59.0 °F78 %30.14 in10.0 miNW (310°)4.6 mphClear
8:51 AM71.6 °F59.0 °F64 %30.14 in10.0 miNorth (10°)3.5 mphClear
9:51 AM75.9 °F59.0 °F56 %30.14 in10.0 miCalmClear
10:51 AM78.1 °F57.0 °F48 %30.14 in10.0 miESE (120°)6.9 mphClear
11:51 AM81.0 °F57.9 °F45 %30.14 in10.0 miCalmClear
12:51 PM80.1 °F57.9 °F47 %30.13 in10.0 miCalmPartly Cloudy
1:51 PM82.9 °F57.0 °F41 %30.12 in10.0 miCalmPartly Cloudy
2:51 PM82.4 °F57.2 °F42 %30.11 in10.0 miWest (280°)4.6 mphScattered Clouds
3:51 PM84.0 °F55.9 °F38 %30.09 in10.0 miCalmScattered Clouds
4:51 PM84.0 °F54.0 °F35 %30.08 in10.0 miNW (320°)3.5 mphClear
5:51 PM82.9 °F57.9 °F42 %30.08 in10.0 miSE (130°)6.9 mphMostly Cloudy
6:51 PM81.0 °F57.0 °F44 %30.08 in10.0 miSSW (210°)3.5 mphClear
7:51 PM80.1 °F57.9 °F47 %30.09 in10.0 miSouth (180°)4.6 mphClear
8:51 PM77.0 °F57.9 °F52 %30.09 in10.0 miSW (220°)3.5 mphClear
9:51 PM73.4 °F59.0 °F61 %30.11 in10.0 miSW (230°)5.8 mphClear
10:51 PM72.0 °F60.1 °F66 %30.12 in10.0 miWSW (240°)3.5 mphClear
11:51 PM71.6 °F60.8 °F69 %30.13 in10.0 miSW (230°)5.8 mphClear
Hourly data recorded from KILG, located miles away from Bellefonte, Delaware







STORIES FROM OUR PARTNERS